Other Surface Observations
Issued by NWS

Home | Current Version | Previous Version | Text Only | Print | Product List | Glossary On
Versions: 1 2 3 4 5 6 7 8 9 10 11 12 13 14 15 16 17 18 19 20 21 22 23 24 25 26 27 28 29 30 31 32 33 34 35 36 37 38 39 40 41 42 43 44 45 46 47 48 49 50
000
SXUS52 KTAE 020418
OSOTAE
OSOTAE
North Florida/South Alabama/Southwest Georgia Weather Roundup
National Weather Service Tallahassee Florida
1200 AM EDT THU OCT 02 2014

Note: "fair" indicates few or no clouds below 12,000 feet with no
significant weather and/or obstructions to visibility.

!FLZ017-115-028-034-025-020500
...North Florida...

CITY           SKY/WX    TMP DP  RH WIND       PRES   REMARKS
TALLAHASSEE    PTCLDY    72  70  93 CALM      30.01S
APALACHICOLA   PTCLDY    74  69  85 NE3       30.00R
PERRY          CLEAR     68  68 100 CALM      30.02S
CROSS CITY       N/A     75  72  90 CALM      30.00S
JACKSONVILLE   PTCLDY    70  70 100 CALM      30.01S
$$

!FLZ112-006-005-002-011-020500
...Florida Panhandle...

CITY           SKY/WX    TMP DP  RH WIND       PRES   REMARKS
MARIANNA       PTCLDY    70  70 100 CALM      30.01R
BONIFAY        FAIR      69  68  96 CALM      30.02R
PANAMA CITY NW FAIR      71  68  90 CALM      30.00R
TYNDALL AFB    MOCLDY    73  73 100 CALM      30.00F
TYND DRONE APT FAIR      72  71  98 MISG      29.99S
DE FUNIAK SPR  FAIR      71  69  95 CALM      30.01S
EGLIN AFB      PTCLDY    73  69  90 NE3       30.00R
DESTIN         PTCLDY    75  70  84 CALM      29.99S
HURLBURT       PTCLDY    71  67  85 N3        29.98S
CRESTVIEW      CLEAR     69  67  93 CALM      30.02R
PENSACOLA      PTCLDY    74  71  91 E3        29.99S
$$

!ALZ063-066-020500
...South Alabama...

CITY           SKY/WX    TMP DP  RH WIND       PRES   REMARKS
DOTHAN         PTCLDY    69  66  90 CALM      30.05S
OZARK CAIRNS   PTCLDY    70  66  89 E2        30.01S
FT RUCKER HELI PTCLDY    67  66  97 CALM      30.00S
RUCKER HELI 3  FAIR      69  67  92 S2        30.03S
RUCKER HELI 2  FAIR      69  66  90 CALM      30.01S
FLORALA APT    CLEAR     68  65  90 CALM      30.03R
ANDALUSIA      PTCLDY    71  66  84 CALM      30.01S
TROY           PTCLDY    66  63  90 CALM      30.02R
EUFALA         FAIR      66  64  93 CALM      30.01R
MOBILE         NOT AVBL
$$

!GAZ120>161-020500
...Southwest and South Central Georgia...

CITY           SKY/WX    TMP DP  RH WIND       PRES   REMARKS
THOMASVILLE    FAIR      70  70 100 CALM      30.04R
BAINBRIDGE     MOCLDY    73  72  94 CALM      30.02S
MOODY AFB      PTCLDY    70  68  93 CALM      30.02S
VALDOSTA       PTCLDY    68  66  93 CALM      30.02S
MOULTRIE       CLEAR     68  68 100 CALM      30.04R
BLAKELY        PTCLDY    70  68  94 CALM        N/A
ALBANY         PTCLDY    68  66  93 CALM      30.04R
TIFTON         FAIR      67  66  99 CALM      30.03R
FITZGERALD     FAIR      67  64  91 E5        30.06R FOG
CORDELE        FAIR      69  67  92 CALM      30.04S
AMERICUS       FAIR      64  64 100 CALM      30.05R
HOMERVILLE     FAIR      72  72 100 CALM      30.03S
$$

!GMZ750-755-770-775-020500
...Coastal and Buoy Obs...

STATION/POSITION TIME  TEMP    WIND        PRES    VSBY  WAVE
                       AIR SEA DIR/SP/G                  HT/PER
                 (UTC) (F)     (DEG/KT/KT) (MB)    (MI)  (FT/S)
KEATON BEACH     0400   73      60/  4/  5 1016.3R
CEDAR KEY        0400   78      80/ 11/ 12 1016.1S
C TOWER          0400   80     110/  7/  8 1015.8R
APALACHICOLA BUO 0400   81 83   70/  4/  4 1015.5F         1/ 3
PANAMA CITY BUOY 0305   81 83  110/ 12/ 14 1015.2          2/ 5
MOBILE BUOY      0331   81 82  120/ 12/ 14 1015.2S         1/ 3
ORANGE BCH AL BU 0400   80 82  150/ 12/ 14 1015.1F         1/ 3
$$



USA.gov is the U.S. government's official web portal to all federal, state and local government web resources and services.